EW8081 Weather Reports


Display with metric or nautical units.
time (UTC)temp
F
wind
direction
speed
MPH
gust
MPH
rain 1hr
in
rain 24hr
in
rain mn
in
humidity
%
barometer
mb
20260906110040 62 173 3.0 10.0 0.00 0.00 0.00 79 1020.8
20260906104537 61 210 4.0 10.0 0.00 0.00 0.00 79 1020.6
20260906103036 61 195 4.0 9.0 0.00 0.00 0.00 78 1020.5
20260906101535 61 206 4.0 10.0 0.00 0.00 0.00 78 1020.3
20260906100033 61 229 1.0 11.0 0.00 0.00 0.00 77 1020.1
20260906094534 61 232 4.0 7.0 0.00 0.00 0.00 77 1019.9
20260906093032 62 205 3.0 9.0 0.00 0.00 0.00 77 1019.9
20260906091534 62 199 3.0 8.0 0.00 0.00 0.00 76 1019.8
20260906090028 62 231 4.0 9.0 0.00 0.00 0.00 75 1019.6
20260906084532 62 197 4.0 0.0 0.00 0.00 0.00 75 1019.4
20260906083025 63 208 3.0 10.0 0.00 0.00 0.00 74 1019.3
20260906081528 63 184 3.0 9.0 0.00 0.00 0.00 74 1018.9
20260906080020 63 174 4.0 10.0 0.00 0.00 0.00 73 1018.7
20260906074517 64 223 4.0 9.0 0.00 0.01 0.00 72 1018.5
20260906073018 64 176 3.0 9.0 0.00 0.01 0.00 71 1018.1
20260906071513 65 191 3.0 10.0 0.00 0.01 0.00 67 1017.8
20260906070010 67 234 3.0 11.0 0.00 0.02 0.00 62 1017.3
20260906064540 69 221 3.0 10.0 0.00 0.02 0.00 55 1017.3
20260906063039 72 168 4.0 10.0 0.00 0.02 0.00 52 1017.2
20260906061538 73 216 4.0 9.0 0.00 0.02 0.00 50 1017.1
20260906060051 73 207 5.0 9.0 0.00 0.02 0.00 51 1017.1
20260906054535 73 187 5.0 9.0 0.00 0.02 0.00 50 1016.7
20260906053037 73 167 4.0 9.0 0.00 0.02 0.00 50 1016.8
20260906051535 73 175 4.0 9.0 0.00 0.02 0.00 49 1016.4
20260906050031 72 176 4.0 9.0 0.00 0.02 0.00 49 1016.5
20260906044528 73 200 3.0 7.0 0.00 0.02 0.00 49 1016.2
20260906043028 73 206 4.0 11.0 0.00 0.02 0.00 49 1016.1
20260906041529 73 181 5.0 10.0 0.00 0.02 0.00 46 1016.1
20260906040033 74 205 4.0 11.0 0.00 0.02 0.00 45 1015.9
20260906034528 74 153 4.0 10.0 0.00 0.02 0.00 44 1015.8
20260906033021 76 185 7.0 12.0 0.00 0.02 0.00 42 1015.8
20260906031534 75 180 5.0 10.0 0.00 0.02 0.00 43 1015.4
20260906030020 74 212 4.0 11.0 0.00 0.02 0.00 43 1015.5
20260906024518 73 220 6.0 15.0 0.00 0.02 0.00 41 1015.6
20260906023018 72 180 4.0 13.0 0.00 0.02 0.00 43 1015.5
20260906021521 77 166 5.0 9.0 0.00 0.02 0.00 37 1015.4
20260906020016 77 237 3.0 11.0 0.00 0.02 0.00 35 1015.5
20260906014516 75 236 4.0 11.0 0.00 0.02 0.00 35 1015.4
20260906013010 75 237 3.0 12.0 0.00 0.02 0.00 35 1015.5
20260906011506 74 273 3.0 13.0 0.00 0.02 0.00 37 1015.6
20260906010003 73 349 6.0 14.0 0.00 0.02 0.00 37 1015.6
20260906004500 73 294 7.0 14.0 0.00 0.02 0.00 36 1015.4
20260906003059 72 317 10.0 20.0 0.00 0.02 0.00 37 1015.2
20260906001555 71 321 7.0 13.0 0.00 0.02 0.00 39 1015.2
20260906000100 70 320 6.0 16.0 0.00 0.02 0.00 40 1014.9
20260905234549 69 330 5.0 15.0 0.00 0.02 0.00 40 1014.9
20260905233051 69 301 9.0 17.0 0.00 0.02 0.00 41 1014.9
20260905231547 68 270 8.0 20.0 0.00 0.02 0.00 43 1014.9
20260905230042 67 282 9.0 20.0 0.00 0.02 0.00 43 1014.9
20260905224540 66 336 8.0 18.0 0.00 0.02 0.00 45 1014.5
20260905223036 64 298 7.0 17.0 0.00 0.02 0.00 48 1014.3
20260905221536 63 311 8.0 19.0 0.00 0.02 0.00 50 1014.1
20260905220032 62 282 11.0 20.0 0.00 0.02 0.00 50 1014.1
20260905214529 61 291 9.0 20.0 0.00 0.02 0.00 53 1014.0
20260905213025 60 296 6.0 13.0 0.00 0.02 0.00 56 1013.6
20260905211524 58 304 5.0 11.0 0.00 0.02 0.00 58 1013.7
20260905210021 57 299 1.0 6.0 0.00 0.02 0.00 59 1013.5
20260905204620 56 278 0.0 7.0 0.00 0.02 0.00 59 1013.2
20260905203017 56 247 1.0 2.0 0.00 0.02 0.00 58 1012.9
20260905201515 56 266 1.0 8.0 0.00 0.02 0.00 56 1012.7
20260905200013 57 295 0.0 5.0 0.00 0.02 0.00 55 1012.4
20260905194511 57 267 2.0 9.0 0.00 0.02 0.00 55 1012.3
20260905193008 57 293 1.0 3.0 0.00 0.02 0.00 54 1011.6
20260905191505 59 270 3.0 11.0 0.00 0.02 0.00 51 1011.7
20260905190004 59 313 3.0 7.0 0.00 0.02 0.00 50 1011.3
20260905184600 61 291 2.0 10.0 0.00 0.02 0.00 47 1011.3
20260905183054 61 309 3.0 13.0 0.00 0.02 0.00 45 1010.7
20260905181552 61 280 1.0 6.0 0.00 0.02 0.00 48 1010.5
20260905180108 62 296 4.0 14.0 0.00 0.02 0.00 47 1009.8
20260905174545 63 324 5.0 15.0 0.00 0.02 0.00 46 1009.3
20260905173054 64 292 7.0 21.0 0.00 0.02 0.00 43 1009.4
20260905171551 65 316 12.0 25.0 0.00 0.02 0.00 43 1009.4
20260905170038 65 305 9.0 27.0 0.00 0.02 0.00 43 1009.8
20260905164536 65 333 13.0 24.0 0.00 0.02 0.00 43 1009.8
20260905163033 65 282 11.0 27.0 0.00 0.02 0.00 45 1009.7
20260905161529 65 293 5.0 12.0 0.00 0.02 0.00 54 1009.6
20260905160045 65 287 6.0 15.0 0.00 0.02 0.00 56 1009.9
20260905154525 65 296 7.0 14.0 0.00 0.02 0.00 57 1009.8
20260905153025 64 338 3.0 14.0 0.00 0.02 0.00 64 1009.4
20260905151518 65 295 2.0 6.0 0.00 0.02 0.00 64 1009.3
20260905150017 65 288 5.0 9.0 0.00 0.02 0.00 64 1009.0
20260905144524 65 291 5.0 10.0 0.00 0.02 0.00 64 1008.8
20260905143012 66 292 2.0 7.0 0.00 0.02 0.00 63 1008.5
20260905141512 67 297 2.0 7.0 0.00 0.02 0.00 61 1008.5
20260905140012 68 282 3.0 12.0 0.00 0.02 0.02 59 1008.4
20260905134504 68 267 5.0 11.0 0.00 0.02 0.02 57 1008.0
20260905133008 69 303 6.0 11.0 0.00 0.02 0.02 56 1007.8
20260905131504 68 307 4.0 9.0 0.00 0.02 0.02 59 1007.7
20260905130004 68 293 5.0 10.0 0.00 0.02 0.02 60 1007.3
20260905124503 68 348 2.0 8.0 0.00 0.02 0.02 60 1007.4
20260905123003 69 336 3.0 9.0 0.00 0.02 0.02 59 1007.3
20260905121502 69 349 3.0 10.0 0.00 0.02 0.02 59 1007.3
20260905120001 69 345 3.0 10.0 0.00 0.02 0.02 59 1007.4
20260905114501 70 338 4.0 10.0 0.00 0.02 0.02 58 1007.7
20260905113101 70 330 4.0 9.0 0.00 0.02 0.02 58 1007.9
20260905111653 71 343 6.0 11.0 0.00 0.02 0.02 56 1007.7